Regional Weather Roundup
Issued by NWS

Home | Current Version | Previous Version | Text Only | Print | Product List | Glossary Off
Versions: 1 2 3 4 5 6 7 8 9 10 11 12 13 14 15 16 17 18 19 20 21 22 23 24 25 26 27 28 29 30 31 32 33 34 35 36 37 38 39 40 41 42 43 44 45 46 47 48 49 50

000
ASUS43 KFSD 211210
RWRSD

WEATHER ROUNDUP FOR SOUTH DAKOTA
NATIONAL WEATHER SERVICE SIOUX FALLS SD
700 AM CDT TUE OCT 21 2014

NOTE: "FAIR" INDICATES FEW OR NO CLOUDS BELOW 12,000 FEET WITH NO
SIGNIFICANT WEATHER AND/OR OBSTRUCTIONS TO VISIBILITY.


SDZ001>005-009-010-012>017-211300-
NORTHWEST AND NORTH CENTRAL SOUTH DAKOTA

CITY           SKY/WX    TMP DP  RH WIND       PRES   REMARKS
BUFFALO          N/A     48  39  71 S8        29.72F
FAITH            N/A     46  39  76 S18       29.80S
MOBRIDGE       CLEAR     53  40  61 SE10      29.83F
$$

SDZ012>016-024>037-041>051-057-063-072>074-211300-
SOUTHWEST AND SOUTH CENTRAL SOUTH DAKOTA

CITY           SKY/WX    TMP DP  RH WIND       PRES   REMARKS
RAPID CTY ARPT CLEAR     49  38  65 SE3       29.84S
PIERRE         CLEAR     52  40  63 SE13      29.87S
CUSTER         CLEAR     56  33  42 W6        29.97F
ELLSWORTH AFB  CLEAR     52  40  62 S3        29.83S
PHILIP         CLEAR     54  42  64 SE5       29.84F
PINE RIDGE     CLEAR     55  42  61 SW12      29.91S
SPEARFISH      FAIR      54  37  54 S3        29.84F
WINNER         FAIR      60  39  45 S22       29.92S
$$

SDZ004>011-016>023-039-040-211300-
NORTHEAST SOUTH DAKOTA

CITY           SKY/WX    TMP DP  RH WIND       PRES   REMARKS
ABERDEEN       CLEAR     49  38  65 SE12      29.96F
WATERTOWN      CLEAR     46  38  73 SE12      30.04F
SISSETON         N/A     37  36  96 S9        30.05S
$$

SDZ017-020-022-023-036>040-048>070-211300-
SOUTHEAST SOUTH DAKOTA

CITY           SKY/WX    TMP DP  RH WIND       PRES   REMARKS
SIOUX FALLS    CLEAR     41  36  82 SE3       30.09S
HURON          CLEAR     50  36  58 SE14      29.98F
CHAMBERLAIN    CLEAR     45  38  76 SE9       29.95S
MITCHELL       CLEAR     49  38  65 SE13      30.01F
YANKTON        CLEAR     41  37  87 E5        30.07R
$$

ABBREVIATIONS USED IN REMARKS
   TC - TEMPERATURE IN CELSIUS
  WCI - WIND CHILL INDEX
   HX - HEAT INDEX
  VSB - VISIBILITY



USA.gov is the U.S. government's official web portal to all federal, state and local government web resources and services.